GEESAT 3-06

导读

GEESAT 3-06是中国吉利未来出行星座(GeeSAT)第三批次卫星之一,于2024年9月5日由中国发射,由吉利旗下时空道宇自主研发。该卫星属于低轨导航增强卫星,作为吉利构建天地一体化高精时空信息系统的组成部分,将与已部署卫星协同,赋能智慧出行、智能驾驶、智慧城市等领域,提供高精度定位、天基通信等服务。

Basic Information
目录编号:
61016
目录名称:
GEESAT 3-06
国际标识:
2024-159F
轨道中心:
EARTH
卫星名称:
GEESAT 3-06
卫星全名:
GEESAT 3-06
卫星状态:
在轨 (已飞行646 天)
发射日期:
2024-09-05 UTC
国别 :
中国 (CN)
星等 :
--
Orbit Information
数据来源 国际轨道数据 AOE轨道数据
星历时间 2026-06-13T03:13:48+0800
8小时前
查看轨道信息
2026-06-11T17:00:00+0800
1天前
查看轨道信息
半长轴 6994.275km 6994.287km
偏心率 0.001647 0.0016592
轨道倾角 49.997° 49.996°
近地点辐角 59.458° 53.090°
升交点赤经 103.694° 110.311°
平近点角 300.798° 241.179°
近地点 604.618km 604.545km
远地点 627.658km 627.755km
周期 97.023分钟 97.023分钟
每日圈数 14.841873 14.841836
Detailed Information
使用方式:
暂无
2D Orbit Map
3D Orbit Map
Orbit Altitude Analysis Chart
Orbit Inclination Analysis Chart
Orbit Comprehensive Analysis Chart
View Comprehensive Chart